DELTA 1 DEB, 7050

Orbit data source: Space-Track

DELTA 1 DEB, 7050 is space debris in SSO originally from a launch on Tue, 06 Nov 1973 UTC launched from the Air Force Western Test Range (AFWTR). Debris objects in space refer to the collection of defunct objects orbiting the Earth. Examples of debris include non-operational satellites, rocket bodies, and fragments generated from explosions, collisions, or faulty payload assembly.

Loading next visibility...
Identifier
7050, 1973-086AS
Orbit
SSO
Country
Flag of USUS
Related business
Manufacturer
Unknown
Mission
Spacecraft
Bus & Motor
Unknown
Mass
Unknown
Launch date (UTC)
1973-11-06 (52 years ago)
Launch vehicle
Unknown
Launch site
Air Force Western Test Range (AFWTR)
Object type
Payload
Rocket body
Debris
Shape & HBR
Unknown shape, 0.2 m
Radar Cross Section
Small (<0.1 m²)

Expand to show TLE details & history
Last TLE update: 5 hours ago

TLE from 5 hours ago
0 DELTA 1 DEB
1  7050U 73086AS  25298.18759698  .00000438  00000-0  28417-2 0  9994
2  7050 101.6443 275.5117 0050131 306.9198  64.3986 12.58045656368877
Epoch: 2025-10-25T04:30Z
TLE epoch observation values (Epoch: 2025-10-25T04:30:08.379Z)
Latitude
11.55093°
Longitude
171.75311°
Altitude
1,416.1 km
Speed
7.161 km/s
True Right ascension
18h 12m 26s
True Declination
11° 29' 22"
Sunlit
Object was in daylight at epoch
Visualization orbit readout
Latitude
Unknown
Longitude
Unknown
Altitude
Unknown
Speed
Unknown
Apparent Right ascension
Unknown
Apparent Declination
Unknown
Sunlit
N/A
Visualization observer readout
Local Sidereal Time
04:50:42
Azimuth
Unknown
Elevation
Unknown
Doppler factor
Unknown
Orbital elements
Apogee altitude
1,467.687 km
Perigee altitude
1,389.416 km
Semi-major axis
7,806.689 km
Eccentricity
0.00501
Inclination
101.6443°
RAAN
275.5117°
Arg. of periapsis
306.9198°
True anomaly
64.91806°
Mean anomaly
64.3986°
Eccentric anomaly
64.65819°
Mean motion
3.14661 °/min
Orbital period
114.41 mins
BSTAR
0.0028417
Loading maneuver chart data...
Computing Atmospheric mass density...
Loading historical data...
Loading historical data...
Loading historical data...
Loading historical data...
Loading historical data...
Loading historical data...
Loading historical data...

Documentation

Showing up to 5 results
|